Regional Weather Roundup
Issued by NWS Cleveland, OH

Home | Current Version | Previous Version | Text Only | Print | Product List | Glossary Off
Versions: 1 2 3 4 5 6 7 8 9 10 11 12 13 14 15 16 17 18 19 20 21 22 23 24 25 26 27 28 29 30 31 32 33 34 35 36 37 38 39 40 41 42 43 44 45 46 47 48 49 50

000
ASUS41 KCLE 250602
RWRCLE
OHIO REGIONAL WEATHER ROUNDUP
NATIONAL WEATHER SERVICE CLEVELAND, OH
200 AM EDT TUE APR 25 2017

NOTE: "FAIR" INDICATES FEW OR NO CLOUDS BELOW 12,000 FEET WITH NO
SIGNIFICANT WEATHER AND/OR OBSTRUCTIONS TO VISIBILITY.

OHZ001>008-015>018-024>027-034-035-043-044-250700-
   NORTHWEST OHIO

CITY           SKY/WX    TMP DP  RH WIND       PRES   REMARKS
DEFIANCE       CLEAR     53  45  74 SE5       29.84S
FINDLAY        MOCLDY    57  45  64 SE9       29.84F
TOLEDO EXPRESS PTCLDY    54  47  77 E7        29.85F
TOLEDO EXEC    CLOUDY    55  49  80 E6        29.87F
LIMA           CLEAR     54  47  77 SE13      29.83F
$$

OHZ009>014-019>023-028>033-038-089-250700-
   NORTHEAST OHIO

CITY           SKY/WX    TMP DP  RH WIND       PRES   REMARKS
CLE-HOPKINS    CLOUDY    59  42  53 SE15G22   29.91F
CLE-LAKEFRONT  CLOUDY    59  43  55 SE17G26   29.88F
CUY CO. ARPT   NOT AVBL
LORAIN-ELYRIA  CLOUDY    56  42  59 SE14      29.88F
ASHTABULA      CLOUDY    57  43  59 SE17G23   29.94F
AKRON-CANTON   CLOUDY    55  42  61 SE16      29.90F
WOOSTER        CLOUDY    54  44  69 SE12      29.90S
MANSFIELD      PTCLDY    53  45  74 E14       29.88S
YOUNGSTOWN     CLOUDY    55  43  63 SE13      29.94F
$$

OHZ042-051>053-060>062-070>072-077>081-250700-
  SOUTHWEST OHIO

CITY           SKY/WX    TMP DP  RH WIND       PRES   REMARKS
CINC-COVINGTON PTCLDY    57  52  83 E10       29.81S
CINC-LUNKEN    PTCLDY    55  54  96 E5        29.82S
HAMILTON       PTCLDY    57  52  83 E5        29.83S
DAYTON         PTCLDY    54  47  77 E14       29.83S
WRIGHT-PAT AFB PTCLDY    54  48  81 E6        29.83S
DAYTON GENERAL CLEAR     54  48  80 E6        29.82S
WILMINGTON     CLEAR     52  49  89 E6        29.82S
$$

OHZ036-037-039>041-045>050-054>059-063>069-073>076-082>088-250700-
  CENTRAL AND SOUTHEAST OHIO

CITY           SKY/WX    TMP DP  RH WIND       PRES   REMARKS
COLUMBUS       CLOUDY    55  48  77 E12       29.84F
OSU AIRPORT    CLOUDY    54  48  80 E9        29.85S
BOLTON FIELD   MOCLDY    54  47  79 E7        29.85S
RICKENBACK AFB MOCLDY    53  48  82 E6        29.84S
NEWARK         PTCLDY    54  46  74 NE5       29.85F
MARION         PTCLDY    53  45  74 SE10      29.86F
LANCASTER      PTCLDY    54  47  77 E7        29.84F
ZANESVILLE     CLOUDY    55  46  71 E6        29.87F
NEW PHILLY     NOT AVBL
$$



USA.gov is the U.S. government's official web portal to all federal, state and local government web resources and services.